Weather History for Cecil Field, FL

Change the Weather History Date:

Wednesday, June 19, 2013

  Actual Average (KJAX) Record (KJAX)
Temperature  
Mean Temperature 81 °F 80 °F  
Max Temperature 91 °F 90 °F 103 °F (1998)
Min Temperature 71 °F 71 °F 60 °F (1899)
Degree Days  
Heating Degree Days 0 0  
Month to date heating degree days 0  
Since 1 June heating degree days 0  
Since 1 July heating degree days 1349  
Cooling Degree Days 16 16  
Month to date cooling degree days 271  
Year to date cooling degree days 755  
Since 1 June cooling degree days 271  
Growing Degree Days 31 (Base 50)    
Moisture  
Dew Point 73 °F    
Average Humidity 85    
Maximum Humidity 100    
Minimum Humidity 52    
Precipitation  
Precipitation 0.00 in 0.24 in 4.37 in (1972)
Month to date precipitation 3.88  
Year to date precipitation 19.44  
Snow  
Snow 0.00 in 0.00 in 0.00 in (2002)
Month to date snowfall 0.0  
Since 1 June snowfall 0.0  
Since 1 July snowfall T  
Snow Depth -    
Sea Level Pressure  
Sea Level Pressure 30.00 in    
Wind  
Wind Speed 5 mph (SW)    
Max Wind Speed 12 mph    
Max Gust Speed -    
Visibility 10 miles    
Events Thunderstorm    
T = Trace of Precipitation, MM = Missing Value Source: NWS Daily Summary

Daily Weather History Graph

Daily Weather History Graph

Search for Another Location

Airport:

Trip Planner

Search our weather history database for the weather conditions in past years. The results will help you decide how hot, cold, wet, or windy it might be!

Date:

Astronomy

Jun. 19, 2013 Rise Set
Actual Time 6:26 AM EDT 8:31 PM EDT
Civil Twilight 5:58 AM EDT 8:59 PM EDT
Nautical Twilight 5:25 AM EDT 9:32 PM EDT
Astronomical Twilight 4:49 AM EDT 10:08 PM EDT
Moon 4:34 PM EDT (6/19) 2:56 AM EDT (6/19)
Length of Visible Light 15h 00m
Length of Day
14h 05m
Waxing Gibbous, 80% of the Moon is Illuminated
Jun 19
Waxing Gibbous
Jun 23
Full
Jun 30
Last Quarter
Jul 8
New
Jul 15
First Quarter

Hourly Weather History & Observations

Time (EDT) Temp. Heat Index Dew Point Humidity Pressure Visibility Wind Dir Wind Speed Gust Speed Precip Events Conditions
12:15 AM 77.0 °F - 73.4 °F 89% 30.00 in 10.0 mi SSW 6.9 mph - N/A   Clear
12:35 AM 75.2 °F - 73.4 °F 94% 30.00 in 10.0 mi SSW 5.8 mph - N/A   Clear
12:55 AM 75.2 °F - 73.4 °F 94% 30.00 in 10.0 mi SSW 5.8 mph - N/A   Clear
1:15 AM 75.2 °F - 73.4 °F 94% 30.00 in 10.0 mi SSW 5.8 mph - N/A   Clear
1:35 AM 75.2 °F - 73.4 °F 94% 29.99 in 10.0 mi SSW 4.6 mph - N/A   Clear
1:55 AM 73.4 °F - 73.4 °F 100% 29.99 in 10.0 mi SSW 3.5 mph - N/A   Clear
2:15 AM 75.2 °F - 73.4 °F 94% 29.99 in 10.0 mi South 4.6 mph - N/A   Clear
2:35 AM 73.4 °F - 73.4 °F 100% 29.98 in 10.0 mi South 4.6 mph - N/A   Clear
2:55 AM 73.4 °F - 73.4 °F 100% 29.99 in 10.0 mi SSW 5.8 mph - N/A   Clear
3:15 AM 73.4 °F - 73.4 °F 100% 29.99 in 10.0 mi South 4.6 mph - N/A   Clear
3:35 AM 73.4 °F - 73.4 °F 100% 29.99 in 10.0 mi South 3.5 mph - N/A   Clear
3:55 AM 73.4 °F - 73.4 °F 100% 29.99 in 10.0 mi South 3.5 mph - N/A   Clear
4:15 AM 73.4 °F - 73.4 °F 100% 29.99 in 10.0 mi SSW 5.8 mph - N/A   Clear
4:35 AM 73.4 °F - 73.4 °F 100% 29.99 in 10.0 mi SSW 5.8 mph - N/A   Clear
4:55 AM 73.4 °F - 73.4 °F 100% 29.99 in 10.0 mi South 3.5 mph - N/A   Clear
5:15 AM 73.4 °F - 73.4 °F 100% 30.00 in 10.0 mi South 3.5 mph - N/A   Clear
5:35 AM 73.4 °F - 73.4 °F 100% 30.00 in 10.0 mi Calm Calm - N/A   Clear
5:55 AM 73.4 °F - 73.4 °F 100% 30.01 in 8.0 mi Calm Calm - N/A   Clear
6:15 AM 71.6 °F - 71.6 °F 100% 30.01 in 5.0 mi Calm Calm - N/A   Clear
6:35 AM 71.6 °F - 71.6 °F 100% 30.01 in 2.0 mi Calm Calm - N/A   Clear
6:50 AM 71.6 °F - 71.6 °F 100% 30.01 in 10.0 mi Calm Calm - N/A   Clear
7:50 AM 75.2 °F - 75.2 °F 100% 30.02 in 10.0 mi SW 4.6 mph - N/A   Clear
8:50 AM 80.6 °F 86.2 °F 75.2 °F 84% 30.02 in 10.0 mi SW 5.8 mph - N/A   Clear
9:50 AM 84.2 °F 92.3 °F 75.2 °F 74% 30.02 in 10.0 mi WSW 9.2 mph - N/A   Scattered Clouds
10:50 AM 84.2 °F 90.9 °F 73.4 °F 70% 30.02 in 10.0 mi WSW 9.2 mph - N/A   Scattered Clouds
11:50 AM 87.8 °F 93.8 °F 71.6 °F 58% 30.03 in 10.0 mi WSW 9.2 mph - N/A   Scattered Clouds
12:50 PM 89.6 °F 96.2 °F 71.6 °F 55% 30.01 in 10.0 mi WSW 11.5 mph - N/A   Scattered Clouds
1:50 PM 89.6 °F 98.2 °F 73.4 °F 59% 30.00 in 10.0 mi WNW 5.8 mph - N/A   Scattered Clouds
2:50 PM 82.4 °F 88.2 °F 73.4 °F 74% 29.99 in 10.0 mi South 11.5 mph - N/A   Mostly Cloudy
3:50 PM 89.6 °F 98.2 °F 73.4 °F 59% 29.98 in 10.0 mi Calm Calm - N/A   Scattered Clouds
4:50 PM 91.4 °F 98.4 °F 71.6 °F 52% 29.95 in 10.0 mi Variable 5.8 mph - N/A   Scattered Clouds
5:50 PM 91.4 °F 98.4 °F 71.6 °F 52% 29.94 in 10.0 mi West 11.5 mph - N/A   Scattered Clouds
6:50 PM 89.6 °F 96.2 °F 71.6 °F 55% 29.96 in 10.0 mi West 5.8 mph - N/A   Scattered Clouds
7:50 PM 87.8 °F 93.8 °F 71.6 °F 58% 29.97 in 10.0 mi WNW 4.6 mph - N/A   Scattered Clouds
8:15 PM 84.2 °F 90.9 °F 73.4 °F 70% 29.98 in 10.0 mi North 5.8 mph - N/A Thunderstorm Scattered Clouds
8:35 PM 82.4 °F 88.2 °F 73.4 °F 74% 29.99 in 10.0 mi North 6.9 mph - N/A   Scattered Clouds
8:55 PM 80.6 °F 84.6 °F 71.6 °F 74% 30.01 in 10.0 mi North 8.1 mph - N/A   Partly Cloudy
9:15 PM 78.8 °F - 71.6 °F 78% 30.01 in 10.0 mi North 3.5 mph - N/A   Clear
9:35 PM 78.8 °F - 71.6 °F 78% 30.01 in 10.0 mi NNW 3.5 mph - N/A   Clear
9:55 PM 78.8 °F - 71.6 °F 78% 30.03 in 10.0 mi NNW 3.5 mph - N/A   Mostly Cloudy
10:15 PM 77.0 °F - 73.4 °F 89% 30.03 in 10.0 mi North 3.5 mph - N/A   Mostly Cloudy
10:35 PM 77.0 °F - 73.4 °F 89% 30.03 in 10.0 mi NNW 5.8 mph - N/A   Mostly Cloudy
10:55 PM 77.0 °F - 73.4 °F 89% 30.03 in 10.0 mi SW 6.9 mph - N/A Thunderstorm Mostly Cloudy
11:15 PM 77.0 °F - 73.4 °F 89% 30.04 in 10.0 mi SW 3.5 mph - N/A Thunderstorm Mostly Cloudy
11:35 PM 77.0 °F - 73.4 °F 89% 30.05 in 10.0 mi Calm Calm - N/A   Mostly Cloudy
11:55 PM 75.2 °F - 73.4 °F 94% 30.05 in 10.0 mi Calm Calm - N/A   Mostly Cloudy